TimeMDT,TemperatureF,Dew PointF,Humidity,Sea Level PressureIn,VisibilityMPH,Wind Direction,Wind SpeedMPH,Gust SpeedMPH,PrecipitationIn,Events,Conditions,WindDirDegrees,DateUTC
12:53 AM,42.1,-4.0,14,29.80,10.0,NNW,4.6,-,N/A,,Clear,330,2013-03-19 06:53:00
1:53 AM,37.0,-7.1,15,29.81,10.0,ENE,8.1,-,N/A,,Clear,60,2013-03-19 07:53:00
2:53 AM,42.1,-6.0,13,29.78,10.0,NE,8.1,-,N/A,,Clear,40,2013-03-19 08:53:00
3:53 AM,44.1,-9.0,11,29.76,10.0,North,6.9,-,N/A,,Clear,350,2013-03-19 09:53:00
4:53 AM,45.0,-11.0,9,29.76,10.0,Calm,Calm,-,N/A,,Clear,0,2013-03-19 10:53:00
5:53 AM,34.0,-8.0,16,29.83,10.0,SE,11.5,-,N/A,,Clear,130,2013-03-19 11:53:00
6:53 AM,35.1,-8.0,16,29.85,10.0,South,9.2,-,N/A,,Clear,170,2013-03-19 12:53:00
7:53 AM,44.1,-7.1,12,29.85,10.0,ENE,4.6,-,N/A,,Clear,60,2013-03-19 13:53:00
8:53 AM,45.0,-4.0,13,29.88,10.0,Calm,Calm,-,N/A,,Clear,0,2013-03-19 14:53:00
9:53 AM,48.0,-0.9,13,29.92,10.0,Calm,Calm,-,N/A,,Clear,0,2013-03-19 15:53:00
10:53 AM,46.9,-2.0,13,29.94,10.0,SSW,3.5,-,N/A,,Mostly Cloudy,210,2013-03-19 16:53:00
11:53 AM,50.0,-0.9,12,29.92,10.0,Calm,Calm,-,N/A,,Overcast,0,2013-03-19 17:53:00
12:53 PM,50.0,10.0,20,29.93,10.0,WNW,12.7,26.5,N/A,,Overcast,290,2013-03-19 18:53:00
1:53 PM,50.0,12.0,22,29.94,10.0,Variable,5.8,-,N/A,,Mostly Cloudy,0,2013-03-19 19:53:00
2:53 PM,48.9,14.0,25,29.94,10.0,WNW,6.9,-,N/A,,Overcast,300,2013-03-19 20:53:00
3:53 PM,48.0,16.0,28,29.96,10.0,WSW,11.5,17.3,N/A,,Overcast,250,2013-03-19 21:53:00
4:53 PM,48.0,16.0,28,29.95,10.0,South,6.9,-,N/A,,Mostly Cloudy,170,2013-03-19 22:53:00
5:53 PM,46.9,10.9,23,30.01,10.0,SSE,16.1,-,N/A,,Scattered Clouds,160,2013-03-19 23:53:00
6:53 PM,42.1,9.0,26,30.06,10.0,SE,16.1,-,N/A,,Mostly Cloudy,140,2013-03-20 00:53:00
7:53 PM,36.0,8.1,31,30.08,10.0,SE,12.7,-,N/A,,Clear,130,2013-03-20 01:53:00
8:53 PM,30.9,8.1,38,30.14,10.0,SSE,12.7,-,N/A,,Clear,150,2013-03-20 02:53:00
9:53 PM,30.0,8.1,40,30.16,10.0,SSE,9.2,-,N/A,,Clear,150,2013-03-20 03:53:00
10:53 PM,32.0,10.0,40,30.18,10.0,Calm,Calm,-,N/A,,Clear,0,2013-03-20 04:53:00
11:53 PM,30.0,9.0,41,30.19,10.0,Calm,Calm,-,N/A,,Clear,0,2013-03-20 05:53:00